This is the latest recevied weather packets stored in our database for station/object LU8FCJ-5. If no packets are shown the sender has not sent any weather packets the latest 10 day(s).
| Time | Temp. | Humidity | Pressure | Rain* | Wind** | Luminosity | Snow |
|---|---|---|---|---|---|---|---|
| 1777757734 | 9.44° C | 49% | 1026.9 hPa | 0 mm | - | 154 W/m² | - |
| 1777757424 | 10° C | 49% | 1026.9 hPa | 0 mm | - | 154 W/m² | - |
| 1777757113 | 10.56° C | 47% | 1026.9 hPa | 0 mm | - | 154 W/m² | - |
| 1777756803 | 10.56° C | 45% | 1027 hPa | 0 mm | - | 154 W/m² | - |
| 1777756495 | 11.11° C | 43% | 1026.9 hPa | 0 mm | - | 154 W/m² | - |
| 1777756182 | 11.67° C | 41% | 1026.9 hPa | 0 mm | - | 154 W/m² | - |
| 1777755873 | 12.22° C | 39% | 1026.6 hPa | 0 mm | - | 154 W/m² | - |
| 1777755563 | 12.78° C | 38% | 1027 hPa | 0 mm | - | 154 W/m² | - |
| 1777755252 | 13.89° C | 35% | 1026.9 hPa | 0 mm | - | 154 W/m² | - |
| 1777754943 | 13.89° C | 34% | 1027 hPa | 0 mm | - | 154 W/m² | - |
| 1777754633 | 14.44° C | 35% | 1027 hPa | 0 mm | - | 154 W/m² | - |
| 1777754322 | 14.44° C | 33% | 1026.7 hPa | 0 mm | - | 154 W/m² | - |
| 1777754012 | 14.44° C | 33% | 1026.7 hPa | 0 mm | - | 154 W/m² | - |
| 1777753701 | 14.44° C | 32% | 1026.6 hPa | 0 mm | - | 154 W/m² | - |
| 1777753391 | 15° C | 33% | 1026.5 hPa | 0 mm | - | 154 W/m² | - |
| 1777753081 | 15° C | 33% | 1026.6 hPa | 0 mm | - | 154 W/m² | - |
| 1777752771 | 15° C | 32% | 1026.5 hPa | 0 mm | - | 154 W/m² | - |
| 1777752461 | 15° C | 32% | 1026.7 hPa | 0 mm | - | 154 W/m² | - |
| 1777752151 | 15° C | 31% | 1026.4 hPa | 0 mm | - | 154 W/m² | - |
| 1777751842 | 15.56° C | 31% | 1026.7 hPa | 0 mm | - | 154 W/m² | - |
| 1777751530 | 15.56° C | 31% | 1026.8 hPa | 0 mm | - | 154 W/m² | - |
| 1777751220 | 15.56° C | 30% | 1026.6 hPa | 0 mm | - | 154 W/m² | - |
| 1777750910 | 15.56° C | 31% | 1026.5 hPa | 0 mm | - | 154 W/m² | - |
| 1777750600 | 15.56° C | 30% | 1026.6 hPa | 0 mm | - | 154 W/m² | - |
| 1777750290 | 15.56° C | 30% | 1026.6 hPa | 0 mm | - | 154 W/m² | - |
* Rain latest hour (hover to see other rain measurements)
** Current wind speed in m/s (hover to see current wind gust speed)